Location: Taunton
(51.0167°N, 3.1000°W)
Time: 03:57:32
(UTC+01:00)

Tiangong 2 - Visible Passes

Search period start: 21 August 2017 00:00
Search period end: 31 August 2017 00:00
Orbit: 390 x 395 km, 42.8° (Epoch: 20 August)

Date Brightness Start Highest point End Pass type
(mag) Time Alt. Az. Time Alt. Az. Time Alt. Az.
22 Aug 3.3 05:31:58 10° SSW 05:34:04 16° SSE 05:36:10 10° SE visible
23 Aug 3.4 04:36:41 13° S 04:37:14 13° SSE 04:38:54 10° SE visible
24 Aug 3.0 05:14:37 12° SW 05:16:35 18° S 05:18:55 10° SE visible
25 Aug 3.2 04:20:10 16° SSE 04:20:10 16° SSE 04:21:52 10° SE visible
26 Aug 2.8 04:58:09 17° SSW 04:59:05 19° S 05:01:26 10° SE visible
27 Aug 3.6 04:03:48 14° SE 04:03:48 14° SE 04:04:31 10° SE visible
27 Aug 3.1 05:36:25 10° SW 05:38:24 15° SSW 05:40:24 10° SSE visible
28 Aug 3.0 04:41:55 17° S 04:41:55 17° S 04:43:46 10° SE visible
29 Aug 3.3 05:20:11 11° SSW 05:20:46 12° SSW 05:22:00 10° S visible
